Regional Weather Roundup
Issued by NWS Mobile, AL

Home | Current Version | Previous Version | Text Only | Print | Product List | Glossary On
Versions: 1 2 3 4 5 6 7 8 9 10 11 12 13 14 15 16 17 18 19 20 21 22 23 24 25 26 27 28 29 30 31 32 33 34 35 36 37 38 39 40 41 42 43 44 45 46 47 48 49 50
000
ASUS44 KMOB 130512
RWRMOB
REGIONAL WEATHER ROUNDUP
NATIONAL WEATHER SERVICE MOBILE AL
1100 PM CST TUE DEC 12 2017

NOTE: "FAIR" INDICATES FEW OR NO CLOUDS BELOW 12,000 FEET WITH NO
      SIGNIFICANT WEATHER AND/OR OBSTRUCTIONS TO VISIBILITY.

  * THESE STATIONS ARE PART OF THE UNIVERSITY OF SOUTH ALABAMA
    MESONET AND ARE NOT UNDER NWS OR FAA QUALITY CONTROL.

ALZ061>064-130600-
COASTAL ALABAMA

CITY           SKY/WX    TMP DP  RH WIND       PRES   REMARKS
MOBILE REG APT CLEAR     43  32  65 NW7       30.15S
BROOKLEY FIELD CLEAR     45  36  70 NW10      30.16S
USA CAMPUS*    NOT AVBL
DOG RIVER*     NOT AVBL


CITY           SKY/WX    TMP DP  RH WIND       PRES   REMARKS
GULF SHORES    CLEAR     44  35  72 N3        30.13F

$$

ALZ051>060-130600-
INTERIOR SOUTHWEST AND SOUTH CENTRAL ALABAMA

CITY           SKY/WX    TMP DP  RH WIND       PRES   REMARKS
GREENVILLE     CLEAR     44  27  51 NW9       30.09F
EVERGREEN      CLEAR     36  32  85 NW3       30.12F
ATMORE*          N/A    N/A N/A N/A NW6         N/A
ANDALUSIA/OPP  CLEAR     42  32  67 NW7       30.10S
ANDALUSIA*       N/A     41  34  75 NW3       30.09S
FLORALA APT    CLEAR     42  33  70 VRB5      30.12S
FLORALA*         N/A     43  34  70 SW3       30.81S

$$

FLZ001>006-130600-
WESTERN FLORIDA PANHANDLE

CITY           SKY/WX    TMP DP  RH WIND       PRES   REMARKS
PENSACOLA      CLEAR     44  35  70 NW8       30.12S
NAS PENSACOLA  CLEAR     46  35  65 NW10      30.12S
MILTON           N/A     41  34  76 NW6       30.12S
WHTNG S FIELD  CLEAR     44  35  70 NW6       30.12S


CITY           SKY/WX    TMP DP  RH WIND       PRES   REMARKS
JAY*             N/A     43  34  70 NW5       30.13R
DUKE FIELD     CLEAR     36  32  85 NW5       30.10S
CRESTVIEW      CLEAR     34  31  88 CALM      30.12R
VALPARAISO     CLEAR     39  33  78 NW6       30.10F
DESTIN         CLEAR     49  36  61 NW6       30.11S

$$

MSZ076-079-130600-
INTERIOR SOUTHEAST MISSISSIPPI

CITY           SKY/WX    TMP DP  RH WIND       PRES   REMARKS
LEAKESVILLE*     N/A     41  30  65 CALM      30.17S
AGRICOLA*        N/A     43  32  65 CALM      30.14F

$$

MARINE OBSERVATIONS

STATION/POSITION TIME  TEMP    WIND        PRES    WAVE
                       AIR SEA DIR/SP/G            HT/PER
                 (UTC) (F)     (DEG/KT/KT) (MB)    (FT/S)
PASCAGOULA       0448   45     340/  5/  7 1021.0F
PETIT BOIS ISLND 0448   49     350/ 15/ 19 1021.8S
KATRINA CUT      0430   51     340/ 15     1021.3R
CEDAR POINT      0430   47     340/  9     1020.3S
E DAUPHIN ISLAND 0400   51     320/ 16/ 19 1020.4R
MIDDLE BAY LIGHT 0430   51     350/ 17     1020.7S
USCG MOBILE BAY  0448   46 56  340/  5/  8 1021.0R
STATE DOCKS      0442   47 56              1020.9S
MEAHER PARK      0430   46     340/  2     1020.7S
WEEKS BAY        0330   40                 1020.0S
FORT MORGAN      0448   50     350/ 16/ 18   N/A
12 S ORANGE BCH  NOT AVBL
PENSACOLA BAY    0442   47 58              1020.2F
64 S DAUPHIN ISL 0450   61 73  330/ 14/ 19 1020.7R   3/ 5
67 S FORT MORGAN 0430   60                 1020.3S

$$

SELECTED LOCATIONS ACROSS THE REGION

CITY           SKY/WX    TMP DP  RH WIND       PRES   REMARKS
NEW ORLEANS    CLEAR     47  40  76 N5        30.19S
GULFPORT       PTCLDY    40  35  83 NW3       30.17S
PASCAGOULA AP  PTCLDY    44  30  57 N7        30.16S
PASCAGOULA*      N/A     45  30  57 N3          N/A
HATTIESBURG    CLEAR     36  34  92 CALM      30.19R
LAUREL         CLEAR     39  29  67 N8        30.18F
MERIDIAN       CLEAR     39  30  70 NW5       30.17S
JACKSON        CLEAR     32  26  78 CALM      30.16F
MONTGOMERY     CLEAR     41  27  57 NW10      30.11S
TROY           CLEAR     39  32  76 NW7       30.10S
ASHFORD*         N/A     41  34  75 NW3       30.09S
DOTHAN         CLEAR     41  35  79 MISG      30.11R
PANAMA CITY    CLEAR     40  34  79 NW7       30.09F

$$




USA.gov is the U.S. government's official web portal to all federal, state and local government web resources and services.